Regional Weather Roundup
Issued by NWS

Home | Current Version | Previous Version | Text Only | Print | Product List | Glossary On
Versions: 1 2 3 4 5 6 7 8 9 10 11 12 13 14 15 16 17 18 19 20 21 22 23 24 25 26 27 28 29 30 31 32 33 34 35 36 37 38 39 40 41 42 43 44 45 46 47 48 49 50
000
ASUS43 KDTX 240701
RWRMI
MICHIGAN HOURLY REGIONAL WEATHER ROUNDUP
NATIONAL WEATHER SERVICE DETROIT/PONTIAC MI
300 AM EDT THU AUG 24 2017

NOTE: "FAIR" INDICATES FEW OR NO CLOUDS BELOW 12,000 FEET WITH NO
SIGNIFICANT WEATHER AND/OR OBSTRUCTION TO VISIBILITY.

MIZ047>049-052>055-059>063-066>070-074>076-081>083-240800-
SOUTHEAST LOWER MICHIGAN

CITY           SKY/WX    TMP DP  RH WIND       PRES   REMARKS
ADRIAN         CLEAR     55  50  83 N5        30.04R
ALMA           PTCLDY    46  45  96 CALM      30.06S
ANN ARBOR      CLEAR     57  50  77 NW7       30.02R
BAD AXE        CLEAR     48  46  95 CALM      30.03S FOG
CARO           CLEAR     46  44  95 CALM      30.03R
DETROIT CITY   CLEAR     59  50  72 N5        30.01R
DETROIT        MOCLDY    58  49  72 N6        30.02R
FLINT          CLEAR     51  47  86 CALM      30.04R
GROSSE ILE     CLEAR     59  49  68 N5        30.00S
HILLSDALE      CLEAR     52  48  87 CALM      30.04R
HOWELL         CLEAR     53  48  83 CALM      30.04R

CITY           SKY/WX    TMP DP  RH WIND       PRES   REMARKS
JACKSON        CLEAR     55  48  77 NW3       30.04R
LAMBERTVILLE   PTCLDY    55  52  92 CALM      30.01S
LANSING        CLEAR     50  46  86 CALM      30.05S
LAPEER         MOCLDY    50  49  96 CALM      30.03S
MASON          CLEAR     53  48  83 CALM      30.05R
MONROE         CLEAR     56  51  85 CALM      30.01R
MT. CLEMENS    CLEAR     55  54  94 N8        30.00R
PONTIAC        CLEAR     54  49  83 N3        30.02R
PORT HOPE        N/A     61  52  72 VRB3      30.00S
PORT HURON     CLOUDY    52  50  93 CALM      30.02R
TRI CITIES     CLEAR     51  49  92 NW8       30.05S
MIDLAND        FAIR      47  47  99 NW3       30.05R
TROY           CLEAR     58  48  69 NW6       30.03S
SAGINAW HB     CLEAR     52  46  82 NW3       30.03S
$$
MIZ043>046-050>051-056>058-064>065-071>073-077>080-240800-
SOUTHWEST LOWER MICHIGAN

CITY           SKY/WX    TMP DP  RH WIND       PRES   REMARKS
BATTLE CREEK   CLEAR     54  51  90 CALM      30.05S
BENTON HARBOR  CLEAR     52  50  93 CALM      30.04S
BIG RAPIDS     CLEAR     46  44  91 CALM      30.05S
COLDWATER      CLEAR     49  49 100 CALM      30.04S
FREMONT        FAIR      49  49 100 CALM      30.05R
HOLLAND        MOCLDY    52  50  93 CALM      30.05S
GRAND RAPIDS   CLEAR     53  51  93 CALM      30.05R
IONIA          FAIR      52  47  82 CALM      30.05R
KALAMAZOO      CLEAR     53  49  86 CALM      30.05R
LUDINGTON      PTCLDY    50  48  92 CALM      30.06R
MARSHALL       CLEAR     54  48  81 CALM      30.04S
MOUNT PLEASANT PTCLDY    52  49  90 CALM      30.05S
MUSKEGON       CLOUDY    59  52  77 CALM      30.05S
SOUTH HAVEN    CLEAR     52  51  95 CALM      30.04S
$$
MIZ016>042-240800-
NORTHERN LOWER MICHIGAN

CITY           SKY/WX    TMP DP  RH WIND       PRES   REMARKS
ALPENA         CLOUDY    50  49  96 W5        30.03S
BEAVER ISLAND  CLOUDY    54  49  84 N6        30.05F
BELLAIRE       PTCLDY    45  43  93 CALM      30.06S
CADILLAC       FOG       46  43  90 CALM      30.05S VSB 1
CHARLEVOIX     PTCLDY    55  46  69 N7        30.07F
FRANKFORT      CLEAR     56  50  79 CALM      30.06S
GAYLORD        PTCLDY    44  41  89 W3        30.05S
GRAYLING       CLEAR     42  39  92 CALM      30.06S
HARBOR SPRINGS PTCLDY    46  44  94 N3        30.04F
HOUGHTON LAKE  CLEAR     48  45  89 N3        30.06R
MANISTEE       CLEAR     49  48  97 CALM      30.06R
OSCODA         CLEAR     48  46  93 NW6       30.02F
PELLSTON       MOCLDY    47  45  93 CALM      30.05S
ROGERS CITY    CLOUDY    53  49  85 NW3       30.04S
TRAVERSE CITY  PTCLDY    56  47  71 N5        30.04F
$$
MIZ007>008-015-240800-
EASTERN UPPER MICHIGAN

CITY           SKY/WX    TMP DP  RH WIND       PRES   REMARKS
MACKINAC ISLAN CLOUDY    52  50  93 NW7       30.03F
NEWBERRY       CLEAR     46  45  97 W7        30.05S
S. S. MARIE    MOCLDY    55  48  77 N5        30.03S
MUNISING         N/A     57  52  83 N13       30.06F
$$
MIZ004>006-011>014-085-240800-
CENTRAL UPPER MICHIGAN

CITY           SKY/WX    TMP DP  RH WIND       PRES   REMARKS
MANISTIQUE     PTCLDY    43  38  81 NW6       30.06S
SAWYER-GWINN     N/A    N/A N/A N/A MISG        N/A
$$
MIZ001>003-009>011-084-240800-
WESTERN UPPER MICHIGAN

CITY           SKY/WX    TMP DP  RH WIND       PRES   REMARKS
IRON MOUNTAIN  MOCLDY    45  40  82 CALM      30.10S
HOUGHTON       CLEAR     40  38  93 NW3       30.09F
COPPER HARBOR    N/A     50  44  80 W7        30.08F
$$

ABBREVIATIONS USED IN REMARKS
   TC - TEMPERATURE IN CELSIUS
  WCI - WIND CHILL INDEX
   HX - HEAT INDEX
  VSB - VISIBILITY




USA.gov is the U.S. government's official web portal to all federal, state and local government web resources and services.